Showing default

MDQUBESAT-2, 58665

Orbit data source: Space-Track

MDQUBESAT-2, 58665 is a payload satellite owned by Innova Space (AR) in SSO that was launched on Fri, 01 Dec 2023 UTC via an FALCON 9 launch vehicle from the Air Force Western Test Range (AFWTR). Payload-class satellites include a variety of spacecraft equipped with specific instruments for various scientific and technological missions. These include communications satellites like Starlink; space stations such as the ISS; scientific satellites like the Hubble; Earth observation satellites from companies like Planet Labs, Umbra, and HawkEye 360; GPS; miniature CubeSats for education and research; and military/defense satellites.

Loading next visibility...
Identifier
58665, 2023-185P
Orbit
SSO
Last TLE update
6 hours ago
Origin
Manufacturer
Innova Space
Mission
Operational Commercial Communications
Bus & Motor
POCKETQUBE 2P, Unknown motor
Mass
~0.5 kg wet, ~0.5 kg dry
Launch date (UTC)
2023-12-01 (2 years ago)
Launch vehicle
FALCON 9
Launch site
Air Force Western Test Range (AFWTR)
Object type
Payload
Rocket body
Debris
Shape & HBR
Box + 2 Pan, 0.1 m
Radar Cross Section
0.006 m², Small (<0.1 m²)

Expand to show TLE details & history

TLE from 6 hours ago
0 MDQUBESAT-2
1 58665U 23185P   25192.16347255  .00013319  00000-0  47781-3 0  9998
2 58665  97.5795 266.2226 0011241  38.4748 321.7290 15.28773105 85111
Epoch: 2025-07-11T03:55Z
TLE epoch observation values (Epoch: 2025-07-11T03:55:24.028Z)
Latitude
-0.00009°
Longitude
-81.94685°
Altitude
476.526 km
Speed
7.631 km/s
True Right ascension
17h 44m 53s
True Declination
0° 00' 00"
Sunlit
Object was in full shadow at epoch
Visualization orbit readout
Latitude
-18.50926°
Longitude
-79.14469°
Altitude
482.421 km
Speed
7.626 km/s
Apparent Right ascension
14h 58m 34s
Apparent Declination
-43° 58' 40"
Sunlit
Object is in full shadow
Visualization observer readout
Local Sidereal Time
22:25:22
Azimuth
241.578° WSW
Elevation
-40.514°
Doppler factor
1
Orbital elements
Apogee altitude
484.146 km
Perigee altitude
468.735 km
Semi-major axis
6,854.578 km
Eccentricity
0.00112
Inclination
97.5795°
RAAN
266.2226°
Arg. of periapsis
38.4748°
True anomaly
Unknown
Mean anomaly
321.729°
Eccentric anomaly
Unknown
Mean motion
3.82448 °/min
Orbital period
94.13 mins
BSTAR
0.00047781
Loading maneuver chart data...
Loading SW <> Apogee altitude chart data...
Loading historical data...
Loading historical data...
Loading historical data...
Loading historical data...
Loading historical data...
Loading historical data...
Loading historical data...

MDQUBESAT-2 Visibility forecast

Observer location: undefined°, undefined°

Span
Click to sort rows by Start time (UTC) header in descending order
Start Az.
Max El. time (UTC)
Max El. Az.
Max El.
End time (UTC)
End Az.
4 mins2025-07-11 17:04:33.510Z58.659° ENE2025-07-11 17:06:33.510Z102.103° ESE18.925°2025-07-11 17:08:33.510Z139.972° SSE
5 mins2025-07-12 05:11:33.510Z182.101° SSW2025-07-12 05:13:33.510Z232.178° WSW40.554°2025-07-12 05:16:33.510Z338.313° N
|